| time (UTC) | temp F | wind direction | speed MPH | gust MPH | rain 1hr in | rain 24hr in | rain mn in | humidity % | barometer mb |
| 20260503192624 | 61 | 50 | 3.0 | 10.0 | 0.00 | 0.00 | 0.00 | 36 | 1007.8 |
| 20260503192114 | 61 | 228 | 2.0 | 9.0 | 0.00 | 0.00 | 0.00 | 36 | 1007.8 |
| 20260503191347 | 61 | 51 | 1.0 | 5.0 | 0.00 | 0.00 | 0.00 | 37 | 1007.9 |
| 20260503190841 | 61 | 155 | 2.0 | 13.0 | 0.00 | 0.00 | 0.00 | 37 | 1007.9 |
| 20260503190336 | 61 | 95 | 3.0 | 13.0 | 0.00 | 0.00 | 0.00 | 37 | 1008.0 |
| 20260503185829 | 60 | 101 | 3.0 | 13.0 | 0.00 | 0.00 | 0.00 | 39 | 1008.1 |
| 20260503185323 | 60 | 201 | 3.0 | 13.0 | 0.00 | 0.00 | 0.00 | 35 | 1008.0 |
| 20260503184817 | 60 | 58 | 3.0 | 13.0 | 0.00 | 0.00 | 0.00 | 37 | 1008.2 |
| 20260503184311 | 60 | 270 | 3.0 | 9.0 | 0.00 | 0.00 | 0.00 | 40 | 1008.2 |
| 20260503183807 | 60 | 282 | 3.0 | 10.0 | 0.00 | 0.00 | 0.00 | 38 | 1008.4 |
| 20260503183259 | 60 | 64 | 3.0 | 10.0 | 0.00 | 0.00 | 0.00 | 39 | 1008.4 |
| 20260503182753 | 60 | 162 | 2.0 | 8.0 | 0.00 | 0.00 | 0.00 | 37 | 1008.4 |
| 20260503182246 | 60 | 345 | 3.0 | 11.0 | 0.00 | 0.00 | 0.00 | 40 | 1008.4 |
| 20260503181741 | 60 | 152 | 3.0 | 11.0 | 0.00 | 0.00 | 0.00 | 40 | 1008.5 |
| 20260503181236 | 60 | 293 | 2.0 | 10.0 | 0.00 | 0.00 | 0.00 | 44 | 1008.4 |
| 20260503180730 | 59 | 62 | 2.0 | 10.0 | 0.00 | 0.00 | 0.00 | 37 | 1008.4 |
| 20260503180231 | 59 | 99 | 2.0 | 11.0 | 0.00 | 0.00 | 0.00 | 40 | 1008.4 |
| 20260503175729 | 58 | 135 | 4.0 | 15.0 | 0.00 | 0.00 | 0.00 | 37 | 1008.4 |
| 20260503175229 | 58 | 203 | 3.0 | 15.0 | 0.00 | 0.00 | 0.00 | 40 | 1008.5 |
| 20260503174229 | 59 | 49 | 2.0 | 7.0 | 0.00 | 0.00 | 0.00 | 41 | 1008.6 |
| 20260503173728 | 58 | 25 | 2.0 | 8.0 | 0.00 | 0.00 | 0.00 | 44 | 1008.6 |
| 20260503172728 | 58 | 117 | 2.0 | 12.0 | 0.00 | 0.00 | 0.00 | 39 | 1008.4 |
| 20260503172229 | 58 | 257 | 3.0 | 11.0 | 0.00 | 0.00 | 0.00 | 43 | 1008.5 |
| 20260503171730 | 57 | 206 | 3.0 | 13.0 | 0.00 | 0.00 | 0.00 | 41 | 1008.6 |
| 20260503171227 | 57 | 207 | 3.0 | 13.0 | 0.00 | 0.00 | 0.00 | 44 | 1008.7 |
| 20260503170727 | 57 | 84 | 3.0 | 11.0 | 0.00 | 0.00 | 0.00 | 39 | 1008.8 |
| 20260503170446 | 57 | 323 | 1.0 | 8.0 | 0.00 | 0.00 | 0.00 | 42 | 1008.7 |
| 20260503150718 | 53 | 219 | 2.0 | 11.0 | 0.00 | 0.00 | 0.00 | 44 | 1009.2 |
| 20260503150220 | 53 | 162 | 2.0 | 10.0 | 0.00 | 0.00 | 0.00 | 47 | 1009.4 |
| 20260503140214 | 51 | 354 | 2.0 | 9.0 | 0.00 | 0.00 | 0.00 | 51 | 1009.5 |
| 20260503131156 | 48 | 115 | 2.0 | 7.0 | 0.00 | 0.00 | 0.00 | 57 | 1009.6 |
| 20260503130651 | 48 | 58 | 2.0 | 7.0 | 0.00 | 0.00 | 0.00 | 60 | 1009.6 |
| 20260503130144 | 48 | 241 | 2.0 | 8.0 | 0.00 | 0.00 | 0.00 | 59 | 1009.5 |
| 20260503110424 | 41 | 174 | 1.0 | 5.0 | 0.00 | 0.00 | 0.00 | 77 | 1008.5 |
| 20260503090159 | 41 | 293 | 0.0 | 3.0 | 0.00 | 0.00 | 0.00 | 78 | 1007.0 |
| 20260503081606 | 41 | 190 | 0.0 | 3.0 | 0.00 | 0.00 | 0.00 | 79 | 1006.7 |
| 20260503081100 | 41 | 255 | 0.0 | 1.0 | 0.00 | 0.00 | 0.00 | 79 | 1006.6 |
| 20260503080555 | 41 | 255 | 0.0 | 4.0 | 0.00 | 0.01 | 0.00 | 79 | 1006.7 |
| 20260503072506 | 40 | 237 | 0.0 | 2.0 | 0.00 | 0.01 | 0.00 | 80 | 1006.3 |
| 20260503072233 | 40 | 266 | 0.0 | 0.0 | 0.00 | 0.01 | 0.00 | 80 | 1006.2 |
| 20260503071454 | 40 | 266 | 0.0 | 2.0 | 0.00 | 0.01 | 0.00 | 80 | 1006.2 |
| 20260503071211 | 40 | 266 | 0.0 | 2.0 | 0.00 | 0.01 | 0.00 | 80 | 1006.1 |
| 20260503070442 | 40 | 279 | 0.0 | 3.0 | 0.00 | 0.01 | 0.00 | 81 | 1006.1 |
| 20260503054811 | 42 | 210 | 0.0 | 0.0 | 0.00 | 0.01 | 0.00 | 77 | 1006.0 |
| 20260503054306 | 42 | 210 | 0.0 | 0.0 | 0.00 | 0.01 | 0.00 | 75 | 1006.0 |
| 20260503053800 | 43 | 210 | 0.0 | 0.0 | 0.00 | 0.01 | 0.00 | 74 | 1005.9 |
| 20260503053517 | 43 | 210 | 0.0 | 1.0 | 0.00 | 0.01 | 0.00 | 74 | 1006.0 |
| 20260503052748 | 44 | 210 | 0.0 | 1.0 | 0.00 | 0.01 | 0.00 | 73 | 1006.0 |
| 20260503052241 | 44 | 244 | 0.0 | 1.0 | 0.00 | 0.01 | 0.00 | 72 | 1005.9 |
| 20260503051735 | 44 | 244 | 0.0 | 1.0 | 0.00 | 0.01 | 0.00 | 71 | 1006.0 |
| 20260503051232 | 44 | 101 | 0.0 | 1.0 | 0.00 | 0.01 | 0.00 | 70 | 1005.9 |
| 20260503050732 | 45 | 154 | 0.0 | 1.0 | 0.00 | 0.01 | 0.00 | 69 | 1005.9 |
| 20260503050457 | 45 | 144 | 0.0 | 1.0 | 0.00 | 0.01 | 0.00 | 69 | 1006.0 |
| 20260503045232 | 45 | 72 | 0.0 | 1.0 | 0.00 | 0.01 | 0.00 | 69 | 1006.1 |
| 20260503044949 | 46 | 134 | 0.0 | 2.0 | 0.00 | 0.01 | 0.00 | 68 | 1006.1 |
| 20260503044228 | 46 | 125 | 0.0 | 2.0 | 0.00 | 0.01 | 0.00 | 68 | 1006.1 |
| 20260503043728 | 46 | 120 | 0.0 | 2.0 | 0.00 | 0.01 | 0.00 | 68 | 1006.2 |
| 20260503043446 | 46 | 152 | 0.0 | 2.0 | 0.00 | 0.01 | 0.00 | 68 | 1006.1 |
| 20260503042945 | 46 | 123 | 0.0 | 2.0 | 0.00 | 0.01 | 0.00 | 67 | 1006.2 |
| 20260503042226 | 46 | 110 | 0.0 | 1.0 | 0.00 | 0.01 | 0.00 | 67 | 1006.2 |
| 20260503041726 | 46 | 93 | 0.0 | 4.0 | 0.00 | 0.01 | 0.00 | 67 | 1006.2 |
| 20260503041224 | 46 | 247 | 0.0 | 4.0 | 0.00 | 0.01 | 0.00 | 67 | 1006.2 |
| 20260503040725 | 46 | 21 | 0.0 | 3.0 | 0.00 | 0.01 | 0.00 | 66 | 1006.1 |
| 20260503040224 | 47 | 276 | 0.0 | 3.0 | 0.00 | 0.01 | 0.00 | 66 | 1006.1 |
| 20260503035947 | 47 | 128 | 0.0 | 3.0 | 0.00 | 0.01 | 0.01 | 65 | 1006.1 |
| 20260503035450 | 47 | 126 | 0.0 | 1.0 | 0.00 | 0.01 | 0.01 | 65 | 1006.0 |
| 20260503034717 | 47 | 229 | 0.0 | 0.0 | 0.00 | 0.01 | 0.01 | 64 | 1006.0 |
| 20260503034215 | 48 | 229 | 0.0 | 2.0 | 0.00 | 0.01 | 0.01 | 63 | 1006.0 |
| 20260503033718 | 48 | 229 | 0.0 | 3.0 | 0.00 | 0.01 | 0.01 | 63 | 1006.0 |
| 20260503033212 | 48 | 309 | 0.0 | 3.0 | 0.00 | 0.01 | 0.01 | 63 | 1006.0 |
| 20260503032707 | 48 | 158 | 0.0 | 3.0 | 0.00 | 0.01 | 0.01 | 63 | 1006.0 |
| 20260503032200 | 48 | 290 | 0.0 | 3.0 | 0.00 | 0.01 | 0.01 | 63 | 1006.0 |
| 20260503031653 | 48 | 220 | 0.0 | 2.0 | 0.00 | 0.01 | 0.01 | 63 | 1005.9 |
| 20260503031148 | 49 | 205 | 0.0 | 1.0 | 0.00 | 0.01 | 0.01 | 63 | 1005.9 |
| 20260503030641 | 49 | 294 | 0.0 | 2.0 | 0.00 | 0.01 | 0.01 | 63 | 1005.9 |
| 20260503030137 | 49 | 294 | 0.0 | 2.0 | 0.00 | 0.01 | 0.01 | 62 | 1005.9 |
| 20260503025856 | 49 | 113 | 0.0 | 0.0 | 0.00 | 0.01 | 0.01 | 63 | 1005.9 |
| 20260503025357 | 49 | 148 | 0.0 | 0.0 | 0.00 | 0.01 | 0.01 | 63 | 1006.0 |
| 20260503024617 | 49 | 127 | 0.0 | 2.0 | 0.00 | 0.01 | 0.01 | 63 | 1005.9 |
| 20260503024111 | 49 | 179 | 0.0 | 2.0 | 0.00 | 0.01 | 0.01 | 64 | 1005.8 |
| 20260503023606 | 49 | 283 | 0.0 | 1.0 | 0.00 | 0.01 | 0.01 | 64 | 1005.8 |
| 20260503023100 | 49 | 191 | 0.0 | 0.0 | 0.00 | 0.01 | 0.01 | 64 | 1005.8 |
| 20260503022818 | 49 | 191 | 0.0 | 0.0 | 0.00 | 0.01 | 0.01 | 64 | 1005.7 |
| 20260503022048 | 49 | 191 | 0.0 | 0.0 | 0.00 | 0.01 | 0.01 | 63 | 1005.7 |
| 20260503021541 | 49 | 191 | 0.0 | 0.0 | 0.00 | 0.01 | 0.01 | 63 | 1005.8 |
| 20260503021037 | 50 | 191 | 0.0 | 0.0 | 0.00 | 0.01 | 0.01 | 61 | 1005.7 |
| 20260503020527 | 50 | 191 | 0.0 | 0.0 | 0.00 | 0.01 | 0.01 | 62 | 1005.7 |
| 20260503020023 | 50 | 191 | 0.0 | 0.0 | 0.00 | 0.01 | 0.01 | 60 | 1005.7 |
| 20260503015517 | 50 | 191 | 0.0 | 0.0 | 0.00 | 0.01 | 0.01 | 59 | 1005.8 |
| 20260503015236 | 50 | 191 | 0.0 | 0.0 | 0.00 | 0.01 | 0.01 | 59 | 1005.7 |
| 20260503014507 | 50 | 160 | 0.0 | 0.0 | 0.00 | 0.01 | 0.01 | 57 | 1005.7 |
| 20260503013959 | 50 | 308 | 0.0 | 0.0 | 0.00 | 0.01 | 0.01 | 57 | 1005.6 |
| 20260503013452 | 51 | 308 | 0.0 | 0.0 | 0.00 | 0.01 | 0.01 | 56 | 1005.6 |
| 20260503012947 | 51 | 308 | 0.0 | 0.0 | 0.00 | 0.01 | 0.01 | 56 | 1005.6 |
| 20260503012441 | 51 | 308 | 0.0 | 0.0 | 0.00 | 0.01 | 0.01 | 55 | 1005.6 |
| 20260503011936 | 51 | 308 | 0.0 | 0.0 | 0.00 | 0.01 | 0.01 | 55 | 1005.6 |
| 20260503011429 | 52 | 308 | 0.0 | 0.0 | 0.00 | 0.01 | 0.01 | 55 | 1005.6 |
| 20260503010924 | 52 | 308 | 0.0 | 0.0 | 0.00 | 0.01 | 0.01 | 54 | 1005.5 |
| 20260503010417 | 52 | 308 | 0.0 | 0.0 | 0.00 | 0.01 | 0.01 | 54 | 1005.5 |
| 20260503005910 | 52 | 308 | 0.0 | 0.0 | 0.00 | 0.01 | 0.01 | 54 | 1005.3 |
| 20260503005406 | 53 | 308 | 0.0 | 2.0 | 0.00 | 0.01 | 0.01 | 54 | 1005.2 |
| 20260503004859 | 53 | 308 | 0.0 | 2.0 | 0.00 | 0.01 | 0.01 | 54 | 1005.1 |
| 20260503004354 | 53 | 176 | 0.0 | 2.0 | 0.00 | 0.01 | 0.01 | 54 | 1005.1 |
| 20260503003847 | 53 | 106 | 0.0 | 2.0 | 0.00 | 0.01 | 0.01 | 53 | 1005.1 |
| 20260503003341 | 53 | 120 | 0.0 | 2.0 | 0.00 | 0.01 | 0.01 | 53 | 1005.0 |
| 20260503002836 | 53 | 293 | 0.0 | 4.0 | 0.00 | 0.01 | 0.01 | 52 | 1004.9 |
| 20260503002554 | 53 | 254 | 0.0 | 4.0 | 0.00 | 0.01 | 0.01 | 52 | 1004.9 |
| 20260503001823 | 53 | 174 | 0.0 | 2.0 | 0.00 | 0.01 | 0.01 | 52 | 1004.8 |
| 20260503001318 | 54 | 167 | 0.0 | 2.0 | 0.00 | 0.01 | 0.01 | 51 | 1004.6 |
| 20260503000812 | 54 | 139 | 0.0 | 1.0 | 0.00 | 0.01 | 0.01 | 51 | 1004.7 |
| 20260503000306 | 54 | 165 | 0.0 | 2.0 | 0.00 | 0.01 | 0.01 | 49 | 1004.7 |
| 20260502235800 | 54 | 274 | 0.0 | 4.0 | 0.00 | 0.01 | 0.01 | 49 | 1004.6 |
| 20260502235253 | 55 | 262 | 0.0 | 4.0 | 0.00 | 0.01 | 0.01 | 50 | 1004.6 |
| 20260502234748 | 55 | 238 | 0.0 | 1.0 | 0.00 | 0.01 | 0.01 | 48 | 1004.5 |
| 20260502234241 | 55 | 174 | 0.0 | 2.0 | 0.00 | 0.01 | 0.01 | 49 | 1004.5 |
| 20260502233736 | 55 | 162 | 0.0 | 4.0 | 0.00 | 0.01 | 0.01 | 47 | 1004.4 |
| 20260502233229 | 55 | 291 | 0.0 | 4.0 | 0.00 | 0.01 | 0.01 | 47 | 1004.3 |
| 20260502232728 | 56 | 250 | 1.0 | 4.0 | 0.00 | 0.01 | 0.01 | 47 | 1004.3 |
| 20260502232226 | 56 | 219 | 1.0 | 4.0 | 0.00 | 0.01 | 0.01 | 46 | 1004.4 |
| 20260502231725 | 56 | 270 | 0.0 | 4.0 | 0.00 | 0.01 | 0.01 | 46 | 1004.4 |
| 20260502231225 | 56 | 266 | 1.0 | 5.0 | 0.00 | 0.01 | 0.01 | 44 | 1004.3 |
| 20260502230724 | 57 | 207 | 1.0 | 6.0 | 0.00 | 0.01 | 0.01 | 43 | 1004.3 |
| 20260502230443 | 57 | 257 | 1.0 | 6.0 | 0.00 | 0.01 | 0.01 | 46 | 1004.3 |
| 20260502225721 | 58 | 65 | 2.0 | 6.0 | 0.00 | 0.01 | 0.01 | 43 | 1004.2 |
| 20260502225221 | 58 | 100 | 1.0 | 5.0 | 0.00 | 0.01 | 0.01 | 42 | 1004.1 |
| 20260502224721 | 58 | 137 | 1.0 | 5.0 | 0.00 | 0.01 | 0.01 | 43 | 1004.2 |
| 20260502224221 | 58 | 216 | 0.0 | 4.0 | 0.00 | 0.01 | 0.01 | 46 | 1004.2 |
| 20260502223723 | 58 | 54 | 0.0 | 4.0 | 0.00 | 0.01 | 0.01 | 46 | 1004.2 |
| 20260502223221 | 58 | 172 | 1.0 | 4.0 | 0.00 | 0.01 | 0.01 | 46 | 1004.1 |
| 20260502222944 | 58 | 263 | 1.0 | 4.0 | 0.00 | 0.01 | 0.01 | 45 | 1004.2 |
| 20260502222219 | 58 | 108 | 1.0 | 3.0 | 0.00 | 0.01 | 0.01 | 43 | 1004.1 |
| 20260502221944 | 58 | 27 | 0.0 | 3.0 | 0.00 | 0.01 | 0.01 | 44 | 1004.2 |
| 20260502221217 | 59 | 195 | 1.0 | 3.0 | 0.00 | 0.01 | 0.01 | 45 | 1004.1 |
| 20260502220715 | 59 | 241 | 1.0 | 6.0 | 0.00 | 0.01 | 0.01 | 42 | 1004.1 |
| 20260502220213 | 60 | 75 | 1.0 | 6.0 | 0.00 | 0.01 | 0.01 | 42 | 1004.1 |
| 20260502215713 | 60 | 358 | 2.0 | 5.0 | 0.00 | 0.01 | 0.01 | 42 | 1004.2 |
| 20260502215207 | 60 | 301 | 2.0 | 6.0 | 0.00 | 0.01 | 0.01 | 40 | 1004.2 |
| 20260502214701 | 60 | 238 | 2.0 | 7.0 | 0.00 | 0.01 | 0.01 | 40 | 1004.1 |
| 20260502214154 | 60 | 155 | 1.0 | 8.0 | 0.00 | 0.01 | 0.01 | 42 | 1004.1 |
| 20260502213649 | 60 | 141 | 1.0 | 8.0 | 0.00 | 0.01 | 0.01 | 43 | 1004.1 |
| 20260502213144 | 60 | 56 | 1.0 | 4.0 | 0.00 | 0.01 | 0.01 | 43 | 1004.0 |
| 20260502212637 | 60 | 59 | 1.0 | 4.0 | 0.00 | 0.01 | 0.01 | 43 | 1003.9 |
| 20260502212350 | 61 | 86 | 1.0 | 3.0 | 0.00 | 0.01 | 0.01 | 43 | 1003.9 |
| 20260502211624 | 62 | 75 | 1.0 | 3.0 | 0.00 | 0.01 | 0.01 | 40 | 1003.9 |
| 20260502211119 | 63 | 90 | 1.0 | 4.0 | 0.00 | 0.01 | 0.01 | 38 | 1003.9 |
| 20260502210613 | 64 | 184 | 1.0 | 5.0 | 0.00 | 0.01 | 0.01 | 38 | 1003.9 |
| 20260502210107 | 64 | 189 | 2.0 | 5.0 | 0.00 | 0.01 | 0.01 | 37 | 1003.8 |
| 20260502205601 | 63 | 219 | 1.0 | 5.0 | 0.00 | 0.01 | 0.01 | 40 | 1003.7 |
| 20260502205054 | 63 | 269 | 1.0 | 5.0 | 0.00 | 0.01 | 0.01 | 39 | 1003.7 |
| 20260502204549 | 62 | 65 | 1.0 | 4.0 | 0.00 | 0.01 | 0.01 | 40 | 1003.8 |
| 20260502204045 | 61 | 110 | 1.0 | 6.0 | 0.00 | 0.01 | 0.01 | 41 | 1003.7 |
| 20260502203806 | 62 | 338 | 1.0 | 6.0 | 0.00 | 0.01 | 0.01 | 39 | 1003.8 |
| 20260502203031 | 63 | 201 | 1.0 | 6.0 | 0.00 | 0.01 | 0.01 | 38 | 1003.8 |
| 20260502202019 | 62 | 57 | 1.0 | 5.0 | 0.00 | 0.01 | 0.01 | 40 | 1003.8 |
| 20260502201514 | 62 | 266 | 1.0 | 5.0 | 0.00 | 0.01 | 0.01 | 40 | 1003.8 |
| 20260502201006 | 62 | 98 | 1.0 | 5.0 | 0.00 | 0.01 | 0.01 | 42 | 1003.8 |
| 20260502200501 | 62 | 283 | 2.0 | 5.0 | 0.00 | 0.01 | 0.01 | 41 | 1003.8 |
| 20260502195955 | 62 | 49 | 2.0 | 10.0 | 0.00 | 0.01 | 0.01 | 39 | 1003.8 |
| 20260502195719 | 62 | 43 | 2.0 | 10.0 | 0.00 | 0.01 | 0.01 | 45 | 1004.0 |
| 20260502194944 | 62 | 15 | 2.0 | 8.0 | 0.00 | 0.01 | 0.01 | 46 | 1003.9 |
| 20260502194436 | 62 | 89 | 1.0 | 6.0 | 0.00 | 0.01 | 0.01 | 43 | 1003.9 |
| 20260502193930 | 61 | 5 | 1.0 | 4.0 | 0.00 | 0.01 | 0.01 | 47 | 1004.1 |
| 20260502193425 | 60 | 343 | 2.0 | 5.0 | 0.00 | 0.01 | 0.01 | 46 | 1004.2 |
| 20260502192921 | 60 | 269 | 3.0 | 8.0 | 0.00 | 0.01 | 0.01 | 41 | 1004.3 |